Device Time, Air Fuel Ratio(Commanded)(:1),Air Fuel Ratio(Measured)(:1),Commanded Equivalence Ratio(lambda),Engine Coolant Temperature(°F),Engine Load(%),Engine Load(Absolute)(%),Engine Oil Temperature(°F),Engine RPM(rpm),Fuel Trim Bank 1 Short Term(%),Intake Air Temperature(°F),Intake Manifold Pressure(psi),Mass Air Flow Rate(g/s),O2 Sensor1 Equivalence Ratio,O2 Sensor1 wide-range Voltage,Relative Accelerator Pedal Position(%),Relative Throttle Position(%),Speed (OBD)(mph),Throttle Position(Manifold)(%),Timing Advance(°),Turbo Boost & Vacuum Gauge(psi)
24-Apr-2019 19:50:42.455,9.74,9.72,1,177.8,0,16.86,-,858.25,9.38,134.6,3.48,3.48,1,2.17,0,2.35,-,14.12,7.5,-11.17
24-Apr-2019 19:50:42.456,9.74,9.72,1,177.8,0,16.86,-,858.25,9.38,134.6,3.48,3.48,1,2.17,0,2.35,-,14.12,7.5,-11.17
24-Apr-2019 19:50:42.457,9.74,9.72,1,177.8,0,16.86,-,858.25,9.38,134.6,3.48,3.48,1,2.17,0,2.35,-,14.12,7.5,-11.17
24-Apr-2019 19:50:42.457,9.74,9.72,1,177.8,0,16.86,-,858.25,9.38,134.6,3.48,3.48,1,2.17,0,2.35,-,14.12,7.5,-11.17
24-Apr-2019 19:50:42.458,9.74,9.72,1,177.8,0,16.86,-,858.25,9.38,134.6,3.48,3.48,1,2.17,0,2.35,-,14.12,7.5,-11.17
24-Apr-2019 19:50:42.459,9.74,9.72,1,177.8,0,16.86,-,858.25,9.38,134.6,3.48,3.48,1,2.17,0,2.35,-,14.12,7.5,-11.17
24-Apr-2019 19:50:42.460,9.74,9.72,1,177.8,0,16.86,-,858.25,9.38,134.6,3.48,3.48,1,2.17,0,2.35,-,14.12,7.5,-11.17
24-Apr-2019 19:50:42.504,9.74,9.72,1,177.8,0,16.86,-,858.25,9.38,134.6,3.48,3.48,1,2.17,0,2.35,-,14.12,7.5,-11.17
24-Apr-2019 19:50:42.604,9.74,9.72,1,177.8,0,16.86,-,858.25,9.38,134.6,3.48,3.48,1,2.17,0,2.35,-,14.12,7.5,-11.17
24-Apr-2019 19:50:42.705,9.74,9.72,1,177.8,0,18.82,-,858.25,9.38,134.6,3.48,3.48,1,2.17,0,3.14,-,14.12,7.5,-11.17
24-Apr-2019 19:50:42.805,9.74,9.73,1,177.8,0,18.82,-,858.25,9.38,134.6,3.48,3.48,1,2.18,0,3.14,-,14.12,7.5,-11.17
24-Apr-2019 19:50:42.905,9.74,9.73,1,177.8,0,18.82,-,858.25,9.38,134.6,3.48,3.48,1,2.18,0,3.14,-,14.12,7.5,-11.17
24-Apr-2019 19:50:43.005,9.74,9.73,1,177.8,0,18.82,-,858.25,9.38,134.6,3.48,3.48,1,2.18,0,3.14,-,14.12,7.5,-11.17
24-Apr-2019 19:50:43.105,9.74,9.73,1,177.8,0,18.82,-,858.25,9.38,134.6,3.48,3.48,1,2.18,0,3.14,-,14.12,7.5,-11.17
24-Apr-2019 19:50:43.206,9.74,9.73,1,177.8,0,16.86,-,858.25,9.38,134.6,3.48,3.48,1,2.18,0,3.14,-,14.12,7.5,-11.17
24-Apr-2019 19:50:43.305,9.74,9.74,1,177.8,0,16.86,-,858.25,9.38,134.6,3.48,3.48,1,2.19,0,3.14,-,14.12,7.5,-11.17
24-Apr-2019 19:50:43.405,9.74,9.74,1,177.8,0,16.86,-,858.25,9.38,134.6,3.48,3.48,1,2.19,0,3.14,-,14.12,7,-11.17
24-Apr-2019 19:50:43.504,9.74,9.74,1,177.8,0,16.86,-,858.25,9.38,134.6,3.48,3.48,1,2.19,0,3.14,-,14.12,7,-11.17
24-Apr-2019 19:50:43.604,9.74,9.74,1,177.8,0,18.82,-,858.25,9.38,134.6,3.48,3.48,1,2.19,0,3.14,-,14.12,7,-11.17
24-Apr-2019 19:50:43.705,9.74,9.74,1,194,0,18.82,-,858.25,9.38,134.6,3.48,3.48,1,2.19,0,3.14,-,14.12,7,-11.17
24-Apr-2019 19:50:43.805,9.74,9.74,1,194,0,18.82,-,920.75,9.38,134.6,3.48,3.33,1,2.19,0,3.14,-,14.12,7,-11.17
24-Apr-2019 19:50:43.905,9.74,9.74,1,194,0,18.82,-,920.75,9.38,134.6,3.48,3.33,1,2.19,0,3.14,0,14.12,7,-11.17
24-Apr-2019 19:50:44.005,9.74,9.72,1,194,0,18.82,-,920.75,9.38,134.6,3.48,3.33,1,2.18,0,3.14,0,14.12,7,-11.17
24-Apr-2019 19:50:44.105,9.74,9.72,1,194,0,18.82,-,920.75,9.38,136.4,3.48,3.33,1,2.18,0,3.14,0,14.12,8,-11.17
24-Apr-2019 19:50:44.205,9.74,9.72,1,194,0,18.82,172.4,920.75,9.38,136.4,3.48,3.33,1,2.18,0,3.14,0,14.9,8,-11.17
24-Apr-2019 19:50:44.304,9.74,9.73,1,194,0,18.82,172.4,920.75,9.38,136.4,3.48,3.33,1,2.18,0,3.14,0,14.9,8,-11.17
24-Apr-2019 19:50:44.405,9.74,9.73,1,194,0,18.82,172.4,920.75,9.38,136.4,3.48,3.33,1,2.18,0,3.14,0,14.9,8,-11.17
24-Apr-2019 19:50:44.505,9.74,9.73,1,194,0,18.82,172.4,920.75,9.38,136.4,3.48,3.33,1,2.18,0,3.14,0,14.9,8,-11.17
24-Apr-2019 19:50:44.604,9.74,9.73,1,194,0,18.82,172.4,916,9.38,136.4,3.48,3.51,1,2.18,0,3.14,0,14.9,8,-11.17
24-Apr-2019 19:50:44.704,9.74,9.73,1,194,0,18.82,172.4,916,9.38,136.4,3.48,3.51,1,2.18,0,3.14,0,14.9,8,-11.17
24-Apr-2019 19:50:44.805,9.74,9.74,1,194,0,18.82,172.4,916,9.38,136.4,3.48,3.51,1,2.18,0,3.14,0,14.9,8,-11.17
24-Apr-2019 19:50:44.905,9.74,9.74,1,194,0,18.82,172.4,916,9.38,136.4,3.48,3.51,1,2.18,0,3.14,0,14.9,8,-11.17
24-Apr-2019 19:50:45.004,9.74,9.75,1,194,0,18.82,172.4,916,9.38,136.4,3.48,3.51,1,2.18,0,3.14,0,14.9,8,-11.17
24-Apr-2019 19:50:45.104,9.74,9.75,1,194,0,18.82,172.4,916,9.38,136.4,3.48,3.51,1,2.18,0,3.14,0,14.9,8,-11.17
24-Apr-2019 19:50:45.205,9.74,9.75,1,194,0,18.43,172.4,916,9.38,136.4,3.48,3.51,1,2.18,0,3.14,0,14.9,8,-11.17
24-Apr-2019 19:50:45.305,9.74,9.75,1,194,0,18.43,172.4,920.75,9.38,136.4,3.48,3.39,1,2.18,0,3.14,0,14.9,8,-11.17
24-Apr-2019 19:50:45.405,9.74,9.75,1,194,0,18.43,172.4,920.75,9.38,136.4,3.48,3.39,1,2.18,0,3.14,0,14.9,8,-11.17
24-Apr-2019 19:50:45.504,9.74,9.74,1,194,0,18.43,172.4,920.75,9.38,136.4,3.48,3.39,1,2.19,0,3.14,0,14.9,8,-11.17
24-Apr-2019 19:50:45.604,9.74,9.74,1,194,0,18.43,172.4,920.75,9.38,136.4,3.48,3.39,1,2.19,0,3.14,0,14.51,8,-11.17
24-Apr-2019 19:50:45.705,9.74,9.73,1,194,0,18.43,172.4,920.75,9.38,136.4,3.48,3.39,1,2.19,0,3.14,0,14.51,8,-11.17
24-Apr-2019 19:50:45.805,9.74,9.73,1,194,0,18.43,172.4,920.75,9.38,136.4,3.48,3.39,1,2.19,0,3.14,0,14.51,8,-11.17
24-Apr-2019 19:50:45.905,9.74,9.73,1,194,0,18.04,172.4,920.75,9.38,136.4,3.48,3.39,1,2.19,0,3.14,0,14.51,8,-11.17
24-Apr-2019 19:50:46.005,9.74,9.73,1,194,0,18.04,172.4,920.75,9.38,136.4,3.48,3.39,1,2.19,0,3.14,0,14.51,8,-11.17
24-Apr-2019 19:50:46.105,9.74,9.73,1,194,0,18.04,172.4,915.5,9.38,136.4,3.48,3.48,1,2.19,0,3.14,0,14.51,8,-11.17
24-Apr-2019 19:50:46.204,9.74,9.69,1,194,0,18.04,172.4,915.5,9.38,136.4,3.48,3.48,0.99,2.16,0,3.14,0,14.51,8,-11.17
24-Apr-2019 19:50:46.304,9.74,9.69,1,194,0,18.04,172.4,915.5,9.38,136.4,3.48,3.48,0.99,2.16,0,3.14,0,14.51,8,-11.17
24-Apr-2019 19:50:46.405,9.74,9.69,1,194,0,18.04,172.4,915.5,9.38,136.4,3.48,3.48,0.99,2.16,0,3.14,0,14.51,8,-11.17
24-Apr-2019 19:50:46.505,9.74,9.69,1,194,0,18.04,172.4,915.5,9.38,136.4,3.48,3.48,0.99,2.16,0,3.14,0,14.51,8,-11.17
24-Apr-2019 19:50:46.605,9.74,9.7,1,194,0,18.04,172.4,915.5,9.38,136.4,3.48,3.48,0.99,2.16,0,3.14,0,14.51,8,-11.17
24-Apr-2019 19:50:46.704,9.74,9.7,1,194,0,18.04,172.4,915.5,9.38,136.4,3.48,3.48,0.99,2.16,0,2.75,0,14.51,8,-11.17
24-Apr-2019 19:50:46.804,9.74,9.7,1,194,0,18.43,172.4,915.5,9.38,136.4,3.48,3.48,0.99,2.16,0,2.75,0,14.51,8,-11.17
24-Apr-2019 19:50:46.905,9.74,9.7,1,194,0,18.43,172.4,915.75,9.38,136.4,3.48,3.44,0.99,2.16,0,2.75,0,14.51,8,-11.17
24-Apr-2019 19:50:47.005,9.74,9.71,1,194,0,18.43,172.4,915.75,9.38,136.4,3.48,3.44,1,2.17,0,2.75,0,14.51,8,-11.17
24-Apr-2019 19:50:47.104,9.74,9.71,1,194,0,18.43,172.4,915.75,9.38,136.4,3.48,3.44,1,2.17,0,2.75,0,14.51,8,-11.17
24-Apr-2019 19:50:47.204,9.74,9.71,1,194,0,18.43,172.4,915.75,9.38,136.4,3.48,3.44,1,2.17,0,2.75,0,14.51,8,-11.17
24-Apr-2019 19:50:47.304,9.74,9.71,1,194,0,18.43,172.4,915.75,9.38,136.4,3.48,3.44,1,2.17,0,2.75,0,14.51,8,-11.17
24-Apr-2019 19:50:47.405,9.74,9.71,1,194,0,18.43,172.4,915.75,9.38,136.4,3.48,3.44,1,2.17,0,3.14,0,14.51,8,-11.17
24-Apr-2019 19:50:47.505,9.74,9.71,1,194,0,17.25,172.4,915.75,9.38,136.4,3.48,3.44,1,2.17,0,3.14,0,14.51,8,-11.17
24-Apr-2019 19:50:47.605,9.74,9.71,1,194,0,17.25,172.4,909.75,9.38,136.4,3.48,3.37,1,2.17,0,3.14,0,14.51,8,-11.17
24-Apr-2019 19:50:47.705,9.74,9.71,1,194,0,17.25,172.4,909.75,9.38,136.4,3.48,3.37,1,2.17,0,3.14,0,14.51,8,-11.17
24-Apr-2019 19:50:47.805,9.74,9.7,1,194,0,17.25,172.4,909.75,8.59,136.4,3.48,3.37,0.99,2.16,0,3.14,0,14.51,8,-11.17
24-Apr-2019 19:50:47.905,9.74,9.7,1,194,0,17.25,172.4,909.75,8.59,136.4,3.48,3.37,0.99,2.16,0,3.14,0,14.51,9,-11.17
24-Apr-2019 19:50:48.005,9.74,9.69,1,194,0,17.25,172.4,909.75,8.59,136.4,3.48,3.37,0.99,2.16,0,3.14,0,14.51,9,-11.17
24-Apr-2019 19:50:48.104,9.74,9.69,1,194,0,17.25,172.4,909.75,8.59,136.4,3.48,3.37,0.99,2.16,0,3.14,0,14.51,9,-11.17
24-Apr-2019 19:50:48.204,9.74,9.69,1,192.2,0,18.43,172.4,909.75,8.59,136.4,3.48,3.37,0.99,2.16,0,3.14,0,14.51,9,-11.17
24-Apr-2019 19:50:48.304,9.74,9.69,1,192.2,0,18.43,172.4,909.75,8.59,136.4,3.48,3.34,0.99,2.16,0,3.14,0,14.51,9,-11.17
24-Apr-2019 19:50:48.404,9.74,9.69,1,192.2,0,18.43,172.4,900.75,8.59,136.4,3.48,3.34,0.99,2.16,0,3.14,0,14.51,9,-11.17
24-Apr-2019 19:50:48.505,9.74,9.71,1,192.2,0,18.43,172.4,900.75,8.59,136.4,3.48,3.34,1,2.17,0,3.14,0,14.51,9,-11.17
24-Apr-2019 19:50:48.605,9.74,9.71,1,192.2,0,18.43,172.4,900.75,8.59,136.4,3.48,3.34,1,2.17,0,3.14,0,14.51,9,-11.17
24-Apr-2019 19:50:48.705,9.74,9.71,1,192.2,0,18.43,172.4,900.75,8.59,136.4,3.48,3.34,1,2.17,0,3.14,0,14.51,9,-11.17
24-Apr-2019 19:50:48.805,9.74,9.74,1,192.2,0,18.43,172.4,900.75,8.59,136.4,3.48,3.34,1,2.17,0,3.14,0,14.51,9,-11.17
24-Apr-2019 19:50:48.905,9.74,9.74,1,192.2,0,18.43,172.4,900.75,8.59,136.4,3.48,3.34,1,2.17,0,3.14,0,14.51,9,-11.17
24-Apr-2019 19:50:49.005,9.74,9.74,1,192.2,0,18.82,172.4,900.75,8.59,136.4,3.48,3.34,1,2.17,0,3.14,0,14.51,9,-11.17
24-Apr-2019 19:50:49.104,9.74,9.74,1,192.2,0,18.82,172.4,900.75,8.59,136.4,3.48,3.41,1,2.17,0,3.14,0,14.51,9,-11.17
24-Apr-2019 19:50:49.205,9.74,9.74,1,192.2,0,18.82,172.4,900.75,8.59,136.4,3.48,3.41,1,2.17,0,3.14,0,14.51,9,-11.17
24-Apr-2019 19:50:49.305,9.74,9.74,1,192.2,0,18.82,172.4,900.75,8.59,136.4,3.48,3.41,1,2.19,0,3.14,0,14.51,9,-11.17
24-Apr-2019 19:50:49.405,9.74,9.74,1,192.2,0,18.82,172.4,900.75,8.59,136.4,3.48,3.41,1,2.19,0,3.14,0,14.51,10,-11.17
24-Apr-2019 19:50:49.505,9.74,9.74,1,192.2,0,18.82,172.4,900.75,8.59,136.4,3.48,3.41,1,2.19,0,3.14,0,14.9,10,-11.17
24-Apr-2019 19:50:49.605,9.74,9.75,1,192.2,0,18.82,172.4,900.75,8.59,136.4,3.48,3.41,1,2.19,0,3.14,0,14.9,10,-11.17
24-Apr-2019 19:50:49.704,9.74,9.75,1,192.2,0,18.82,172.4,900.75,8.59,136.4,3.48,3.41,1,2.19,0,3.53,0,14.9,10,-11.17
24-Apr-2019 19:50:49.804,9.74,9.75,1,192.2,0,21.96,172.4,900.75,8.59,136.4,3.92,3.41,1,2.19,0,3.53,0,14.9,10,-10.73
24-Apr-2019 19:50:49.905,9.74,9.75,1,192.2,0,21.96,172.4,865.5,8.59,136.4,3.92,3.92,1,2.19,0,3.53,0,14.9,10,-10.73
24-Apr-2019 19:50:50.005,9.74,9.75,1,192.2,0,21.96,172.4,865.5,8.59,136.4,3.92,3.92,1,2.19,0,3.53,0,14.9,10,-10.73
24-Apr-2019 19:50:50.105,9.74,9.75,1,192.2,0,21.96,172.4,865.5,8.59,136.4,3.92,3.92,1,2.19,0,3.53,0,14.9,10,-10.73
24-Apr-2019 19:50:50.205,9.74,9.75,1,192.2,0,21.96,172.4,865.5,8.59,136.4,3.92,3.92,1,2.19,0,3.53,0,15.29,12,-10.73
24-Apr-2019 19:50:50.305,9.74,9.75,1,192.2,0,21.96,172.4,865.5,8.59,136.4,3.92,3.92,1,2.19,0,3.53,0,15.29,12,-10.73
24-Apr-2019 19:50:50.405,9.74,9.75,1,192.2,0,21.96,172.4,865.5,8.59,136.4,3.92,3.92,1,2.19,0,3.53,0,15.29,12,-10.73
24-Apr-2019 19:50:50.505,9.74,9.75,1,192.2,0,24.31,172.4,865.5,8.59,136.4,3.92,3.92,1,2.19,0,3.53,0,15.29,12,-10.73
24-Apr-2019 19:50:50.607,9.74,9.75,1,192.2,0,24.31,172.4,865.5,8.59,136.4,4.21,4.17,1,2.19,0,3.53,0,15.29,12,-10.44
24-Apr-2019 19:50:50.705,9.74,9.75,1,192.2,0,24.31,172.4,875.5,8.59,136.4,4.21,4.17,1,2.19,0,3.53,0,15.29,12,-10.44
24-Apr-2019 19:50:50.805,9.74,9.76,1,192.2,37.25,24.31,172.4,875.5,8.59,136.4,4.21,4.17,1,2.2,0,3.53,0,15.29,12,-10.44
24-Apr-2019 19:50:50.905,9.74,9.76,1,192.2,37.25,24.31,172.4,875.5,8.59,136.4,4.21,4.17,1,2.2,0,3.53,0,15.29,12,-10.44
24-Apr-2019 19:50:51.005,9.74,9.76,1,192.2,37.25,24.31,172.4,875.5,8.59,136.4,4.21,4.17,1,2.2,0,3.53,0,15.29,10,-10.44
24-Apr-2019 19:50:51.105,9.74,9.73,1,192.2,37.25,24.31,172.4,875.5,8.59,136.4,4.21,4.17,1,2.2,0,3.53,0,15.29,10,-10.44
24-Apr-2019 19:50:51.205,9.74,9.73,1,192.2,37.25,24.31,172.4,875.5,8.59,136.4,4.21,4.17,1,2.2,0,3.53,0,15.29,10,-10.44
24-Apr-2019 19:50:51.304,9.74,9.73,1,192.2,37.25,22.75,172.4,875.5,8.59,136.4,4.21,4.17,1,2.2,0,3.53,0,15.29,10,-10.44
24-Apr-2019 19:50:51.404,9.74,9.73,1,192.2,37.25,22.75,172.4,875.5,8.59,136.4,4.35,4.27,1,2.2,0,3.53,0,15.29,10,-10.3
24-Apr-2019 19:50:51.505,9.74,9.73,1,192.2,37.25,22.75,172.4,932.75,8.59,136.4,4.35,4.27,1,2.2,0,3.53,0,15.29,10,-10.3
24-Apr-2019 19:50:51.605,9.74,9.75,1,192.2,0,22.75,172.4,932.75,8.59,136.4,4.35,4.27,1,2.2,0,3.53,0,15.29,10,-10.3
24-Apr-2019 19:50:51.705,9.74,9.75,1,192.2,0,22.75,172.4,932.75,8.59,136.4,4.35,4.27,1,2.2,0,3.53,0,15.29,6.5,-10.3
24-Apr-2019 19:50:51.805,9.74,9.75,1,192.2,0,22.75,172.4,932.75,8.59,136.4,4.35,4.27,1,2.2,0,3.53,0,15.29,6.5,-10.3
24-Apr-2019 19:50:51.904,9.74,9.8,1,192.2,0,22.75,172.4,932.75,8.59,136.4,4.35,4.27,1,2.2,0,3.53,0,15.29,6.5,-10.3
24-Apr-2019 19:50:52.005,9.74,9.8,1,192.2,0,21.18,172.4,932.75,8.59,136.4,4.35,4.27,1,2.2,0,3.53,0,15.29,6.5,-10.3
24-Apr-2019 19:50:52.105,9.74,9.8,1,192.2,0,21.18,172.4,932.75,8.59,136.4,4.21,4.27,1,2.2,0,3.53,0,15.29,6.5,-10.44
24-Apr-2019 19:50:52.205,9.74,9.8,1,192.2,0,21.18,172.4,1007.75,8.59,136.4,4.21,4.16,1,2.2,0,3.53,0,15.29,6.5,-10.44
24-Apr-2019 19:50:52.305,9.74,9.8,1,192.2,0,21.18,172.4,1007.75,8.59,136.4,4.21,4.16,1,2.2,0,3.53,0,15.29,6.5,-10.44
24-Apr-2019 19:50:52.404,9.74,9.91,1,192.2,0,21.18,172.4,1007.75,9.38,136.4,4.21,4.16,1.02,2.23,0,3.53,0,15.29,6.5,-10.44
24-Apr-2019 19:50:52.504,9.74,9.91,1,192.2,0,21.18,172.4,1007.75,9.38,136.4,4.21,4.16,1.02,2.23,0,3.53,0,15.29,6.5,-10.44
24-Apr-2019 19:50:52.605,9.74,9.96,1,192.2,0,21.18,172.4,1007.75,9.38,136.4,4.21,4.16,1.02,2.23,0,3.53,0,15.29,6.5,-10.44
24-Apr-2019 19:50:52.705,9.74,9.96,1,192.2,0,21.18,172.4,1007.75,9.38,136.4,4.21,4.16,1.02,2.23,0,3.53,0,15.29,6.5,-10.44
24-Apr-2019 19:50:52.805,9.74,9.96,1,192.2,0,18.82,172.4,1007.75,9.38,136.4,4.21,4.16,1.02,2.23,0,3.53,0,15.29,6.5,-10.44
24-Apr-2019 19:50:52.905,9.74,9.96,1,192.2,0,18.82,172.4,1007.75,9.38,136.4,4.06,4.02,1.02,2.23,0,3.53,0,15.29,6.5,-10.59
24-Apr-2019 19:50:53.005,9.74,9.96,1,192.2,0,18.82,172.4,1041.75,9.38,136.4,4.06,4.02,1.02,2.23,0,3.53,0,15.29,6.5,-10.59
24-Apr-2019 19:50:53.104,9.74,10.1,1,192.2,0,18.82,172.4,1041.75,9.38,136.4,4.06,4.02,1.03,2.26,0,3.53,0,15.29,6.5,-10.59
24-Apr-2019 19:50:53.205,9.74,10.1,1,192.2,0,18.82,172.4,1041.75,10.94,136.4,4.06,4.02,1.03,2.26,0,3.53,0,15.29,6.5,-10.59
24-Apr-2019 19:50:53.305,9.74,10.1,1,192.2,0,18.82,172.4,1041.75,10.94,136.4,4.06,4.02,1.03,2.26,0,3.53,0,15.29,6.5,-10.59
24-Apr-2019 19:50:53.405,9.74,10.12,1,192.2,0,18.82,172.4,1041.75,10.94,136.4,4.06,4.02,1.03,2.26,0,3.53,0,15.29,6.5,-10.59
24-Apr-2019 19:50:53.505,9.74,10.12,1,192.2,0,18.82,172.4,1041.75,10.94,136.4,4.06,4.02,1.03,2.26,0,3.53,0,15.29,6.5,-10.59
24-Apr-2019 19:50:53.605,9.74,10.12,1,192.2,0,20,172.4,1041.75,10.94,136.4,4.06,4.02,1.03,2.26,0,3.53,0,15.29,6.5,-10.59
24-Apr-2019 19:50:53.705,9.74,10.12,1,192.2,0,20,172.4,1041.75,10.94,136.4,3.92,4,1.03,2.26,0,3.53,0,15.29,6.5,-10.73
24-Apr-2019 19:50:53.804,9.74,10.12,1,192.2,0,20,172.4,1001.5,10.94,136.4,3.92,4,1.03,2.26,0,3.53,0,15.29,6.5,-10.73
24-Apr-2019 19:50:53.904,9.74,10.16,1,192.2,0,20,172.4,1001.5,10.94,136.4,3.92,4,1.04,2.27,0,3.53,0,15.29,6.5,-10.73
24-Apr-2019 19:50:54.005,9.74,10.16,1,192.2,0,20,172.4,1001.5,12.5,136.4,3.92,4,1.04,2.27,0,3.53,0,15.29,6.5,-10.73
24-Apr-2019 19:50:54.105,9.74,10.12,1,192.2,0,20,172.4,1001.5,12.5,136.4,3.92,4,1.04,2.27,0,3.53,0,15.29,6.5,-10.73
24-Apr-2019 19:50:54.205,9.74,10.12,1,192.2,0,20,172.4,1001.5,12.5,136.4,3.92,4,1.04,2.27,0,3.53,0,15.29,6.5,-10.73
24-Apr-2019 19:50:54.306,9.74,10.12,1,192.2,0,20.39,172.4,1001.5,12.5,136.4,3.92,4,1.04,2.27,0,3.53,0,15.29,6.5,-10.73
24-Apr-2019 19:50:54.404,9.74,10.12,1,192.2,0,20.39,172.4,1001.5,12.5,136.4,3.92,3.97,1.04,2.27,0,3.53,0,15.29,6.5,-10.73
24-Apr-2019 19:50:54.505,9.74,10.12,1,192.2,0,20.39,172.4,991.25,12.5,136.4,3.92,3.97,1.04,2.27,0,3.53,0,15.29,6.5,-10.73
24-Apr-2019 19:50:54.604,9.74,9.93,1,192.2,0,20.39,172.4,991.25,12.5,136.4,3.92,3.97,1.02,2.23,0,3.53,0,15.29,6.5,-10.73
24-Apr-2019 19:50:54.705,9.74,9.93,1,192.2,0,20.39,172.4,991.25,13.28,136.4,3.92,3.97,1.02,2.23,0,3.53,0,15.29,6.5,-10.73
24-Apr-2019 19:50:54.804,9.74,9.78,1,192.2,0,20.39,172.4,991.25,13.28,136.4,3.92,3.97,1.02,2.23,0,3.53,0,14.9,6.5,-10.73
24-Apr-2019 19:50:54.904,9.74,9.78,1,192.2,0,20.39,172.4,991.25,13.28,136.4,3.92,3.97,1.02,2.23,0,3.53,0,14.9,6.5,-10.73
24-Apr-2019 19:50:55.005,9.74,9.78,1,192.2,0,19.61,172.4,991.25,13.28,136.4,3.92,3.97,1.02,2.23,0,3.14,0,14.9,6.5,-10.73
24-Apr-2019 19:50:55.105,9.74,9.78,1,192.2,0,19.61,172.4,991.25,13.28,136.4,3.92,3.97,1.02,2.23,0,3.14,0,14.9,6.5,-10.73
24-Apr-2019 19:50:55.205,9.74,9.78,1,192.2,0,19.61,172.4,990,13.28,136.4,3.92,3.82,1.02,2.23,0,3.14,0,14.9,6.5,-10.73
24-Apr-2019 19:50:55.304,9.74,9.78,1,192.2,0,19.61,172.4,990,13.28,136.4,3.92,3.82,1.02,2.23,0,3.14,0,14.9,6.5,-10.73
24-Apr-2019 19:50:55.405,9.74,9.64,1,192.2,0,19.61,172.4,990,12.5,136.4,3.92,3.82,0.99,2.12,0,3.14,0,14.9,6.5,-10.73
24-Apr-2019 19:50:55.505,9.74,9.64,1,192.2,0,19.61,172.4,990,12.5,136.4,3.92,3.82,0.99,2.12,0,3.14,0,14.9,6.5,-10.73
24-Apr-2019 19:50:55.605,9.74,9.64,1,192.2,0,19.61,172.4,990,12.5,136.4,3.92,3.82,0.99,2.12,0,3.14,0,14.9,6.5,-10.73
24-Apr-2019 19:50:55.705,9.74,9.61,1,192.2,0,19.61,172.4,990,12.5,136.4,3.92,3.82,0.99,2.12,0,3.14,0,14.9,6.5,-10.73
24-Apr-2019 19:50:55.805,9.74,9.61,1,192.2,0,19.61,172.4,990,12.5,136.4,3.92,3.82,0.99,2.12,0,3.14,0,14.9,6.5,-10.73
24-Apr-2019 19:50:55.905,9.74,9.61,1,192.2,0,20,172.4,990,12.5,136.4,3.92,3.82,0.99,2.12,0,3.14,0,14.9,6.5,-10.73
24-Apr-2019 19:50:56.004,9.74,9.61,1,192.2,0,20,172.4,990,12.5,136.4,3.77,3.83,0.99,2.12,0,3.14,0,14.9,6.5,-10.88
24-Apr-2019 19:50:56.104,9.74,9.61,1,192.2,0,20,172.4,960.5,12.5,136.4,3.77,3.83,0.99,2.12,0,3.14,0,14.9,6.5,-10.88
24-Apr-2019 19:50:56.205,9.74,9.6,1,192.2,0,20,172.4,960.5,12.5,136.4,3.77,3.83,0.98,2.1,0,3.14,0,14.9,6.5,-10.88
24-Apr-2019 19:50:56.305,9.74,9.6,1,192.2,0,20,172.4,960.5,11.72,136.4,3.77,3.83,0.98,2.1,0,3.14,0,14.9,6.5,-10.88
24-Apr-2019 19:50:56.405,9.74,9.61,1,192.2,0,20,172.4,960.5,11.72,136.4,3.77,3.83,0.98,2.1,0,3.14,0,14.9,6.5,-10.88
24-Apr-2019 19:50:56.505,9.74,9.61,1,192.2,0,20,172.4,960.5,11.72,136.4,3.77,3.83,0.98,2.1,0,3.14,0,14.9,6.5,-10.88
24-Apr-2019 19:50:56.605,9.74,9.61,1,192.2,0,20,172.4,960.5,11.72,136.4,3.77,3.83,0.98,2.1,0,3.14,0,14.9,6.5,-10.88
24-Apr-2019 19:50:56.705,9.74,9.61,1,192.2,0,20,172.4,960.5,11.72,136.4,3.77,3.72,0.98,2.1,0,3.14,0,14.9,6.5,-10.88
24-Apr-2019 19:50:56.805,9.74,9.61,1,192.2,0,20,172.4,955,11.72,136.4,3.77,3.72,0.98,2.1,0,3.14,0,14.9,6.5,-10.88
24-Apr-2019 19:50:56.905,9.74,9.62,1,192.2,0,20,172.4,955,11.72,136.4,3.77,3.72,0.99,2.11,0,3.14,0,14.9,6.5,-10.88
24-Apr-2019 19:50:57.005,9.74,9.62,1,192.2,0,20,172.4,955,11.72,136.4,3.77,3.72,0.99,2.11,0,3.14,0,14.9,6.5,-10.88
24-Apr-2019 19:50:57.104,9.74,9.61,1,192.2,0,20,172.4,955,11.72,136.4,3.77,3.72,0.99,2.11,0,3.14,0,14.9,6.5,-10.88
24-Apr-2019 19:50:57.205,9.74,9.61,1,192.2,0,20,172.4,955,11.72,136.4,3.77,3.72,0.99,2.11,0,3.14,0,14.9,6.5,-10.88
24-Apr-2019 19:50:57.305,9.74,9.61,1,192.2,0,19.61,172.4,955,11.72,136.4,3.77,3.72,0.99,2.11,0,3.14,0,14.9,6.5,-10.88
24-Apr-2019 19:50:57.405,9.74,9.61,1,192.2,0,19.61,172.4,955,11.72,136.4,3.77,3.72,0.99,2.11,0,3.14,0,14.9,6.5,-10.88
24-Apr-2019 19:50:57.505,9.74,9.61,1,192.2,0,19.61,172.4,944.5,11.72,136.4,3.77,3.77,0.99,2.11,0,3.14,0,14.9,6.5,-10.88
24-Apr-2019 19:50:57.604,9.74,9.61,1,192.2,0,19.61,172.4,944.5,11.72,136.4,3.77,3.77,0.99,2.11,0,3.14,0,14.9,6.5,-10.88
24-Apr-2019 19:50:57.705,9.74,9.58,1,192.2,0,19.61,172.4,944.5,10.94,136.4,3.77,3.77,0.98,2.09,0,3.14,0,14.9,6.5,-10.88
24-Apr-2019 19:50:57.805,9.74,9.58,1,192.2,0,19.61,172.4,944.5,10.94,136.4,3.77,3.77,0.98,2.09,0,3.14,0,14.9,6.5,-10.88
24-Apr-2019 19:50:57.905,9.74,9.58,1,192.2,0,19.61,172.4,944.5,10.94,136.4,3.77,3.77,0.98,2.09,0,3.14,0,14.9,6.5,-10.88
24-Apr-2019 19:50:58.004,9.74,9.58,1,192.2,0,19.61,172.4,944.5,10.94,136.4,3.77,3.77,0.98,2.09,0,3.14,0,14.9,6.5,-10.88
24-Apr-2019 19:50:58.105,9.74,9.58,1,192.2,0,19.61,172.4,944.5,10.94,136.4,3.77,3.77,0.98,2.09,0,3.14,0,14.9,6.5,-10.88
24-Apr-2019 19:50:58.205,9.74,9.58,1,192.2,0,18.43,172.4,944.5,10.94,136.4,3.63,3.77,0.98,2.09,0,3.14,0,14.9,6.5,-11.02
24-Apr-2019 19:50:58.305,9.74,9.58,1,192.2,0,18.43,172.4,944.5,10.94,136.4,3.63,3.53,0.98,2.09,0,3.14,0,14.9,6.5,-11.02
24-Apr-2019 19:50:58.404,9.74,9.58,1,192.2,0,18.43,172.4,931.5,10.94,136.4,3.63,3.53,0.98,2.09,0,3.14,0,14.9,6.5,-11.02
24-Apr-2019 19:50:58.505,9.74,9.59,1,192.2,0,18.43,172.4,931.5,10.94,136.4,3.63,3.53,0.98,2.09,0,3.14,0,14.9,6.5,-11.02
24-Apr-2019 19:50:58.605,9.74,9.59,1,192.2,0,18.43,172.4,931.5,10.16,136.4,3.63,3.53,0.98,2.09,0,3.14,0,14.9,7.5,-11.02
24-Apr-2019 19:50:58.704,9.74,9.6,1,192.2,0,18.43,172.4,931.5,10.16,136.4,3.63,3.53,0.98,2.09,0,3.14,0,14.9,7.5,-11.02
24-Apr-2019 19:50:58.804,9.74,9.6,1,192.2,0,18.43,172.4,931.5,10.16,136.4,3.63,3.53,0.98,2.09,0,3.14,0,14.9,7.5,-11.02
24-Apr-2019 19:50:58.905,9.74,9.6,1,192.2,0,19.61,172.4,931.5,10.16,136.4,3.63,3.53,0.98,2.09,0,3.14,0,14.9,7.5,-11.02
24-Apr-2019 19:50:59.005,9.74,9.6,1,192.2,0,19.61,172.4,931.5,10.16,136.4,3.77,3.59,0.98,2.09,0,3.14,0,14.9,7.5,-10.88
24-Apr-2019 19:50:59.105,9.74,9.6,1,192.2,0,19.61,172.4,912.25,10.16,136.4,3.77,3.59,0.98,2.09,0,3.14,0,14.9,7.5,-10.88
24-Apr-2019 19:50:59.204,9.74,9.64,1,192.2,0,19.61,172.4,912.25,10.16,136.4,3.77,3.59,0.99,2.13,0,3.14,0,14.9,7.5,-10.88
24-Apr-2019 19:50:59.305,9.74,9.64,1,192.2,0,19.61,172.4,912.25,10.16,136.4,3.77,3.59,0.99,2.13,0,3.14,0,14.9,8,-10.88
24-Apr-2019 19:50:59.405,9.74,9.68,1,192.2,0,19.61,172.4,912.25,10.16,136.4,3.77,3.59,0.99,2.13,0,3.14,0,14.9,8,-10.88
24-Apr-2019 19:50:59.505,9.74,9.68,1,192.2,0,19.61,172.4,912.25,10.16,136.4,3.77,3.59,0.99,2.13,0,3.14,0,14.9,8,-10.88
24-Apr-2019 19:50:59.605,9.74,9.68,1,192.2,0,19.61,172.4,912.25,10.16,136.4,3.77,3.59,0.99,2.13,0,3.14,0,14.9,8,-10.88
24-Apr-2019 19:50:59.705,9.74,9.68,1,192.2,0,19.61,172.4,912.25,10.16,136.4,3.77,3.59,0.99,2.13,0,3.14,0,14.9,8,-10.88
24-Apr-2019 19:50:59.805,9.74,9.68,1,192.2,0,19.61,172.4,912.25,10.16,136.4,3.77,3.61,0.99,2.13,0,3.14,0,14.9,8,-10.88
24-Apr-2019 19:50:59.905,9.74,9.68,1,192.2,0,19.61,172.4,914.5,10.16,136.4,3.77,3.61,0.99,2.13,0,3.14,0,14.9,8,-10.88
24-Apr-2019 19:51:00.005,9.74,9.71,1,192.2,0,19.61,172.4,914.5,10.16,136.4,3.77,3.61,0.99,2.17,0,3.14,0,14.9,8,-10.88
24-Apr-2019 19:51:00.106,9.74,9.71,1,192.2,0,19.61,172.4,914.5,10.16,136.4,3.77,3.61,0.99,2.17,0,3.14,0,14.9,8,-10.88
24-Apr-2019 19:51:00.205,9.74,9.71,1,192.2,0,19.61,172.4,914.5,10.16,136.4,3.77,3.61,0.99,2.17,0,3.14,0,14.9,7.5,-10.88
24-Apr-2019 19:51:00.305,9.74,9.72,1,192.2,0,19.61,172.4,914.5,10.16,136.4,3.77,3.61,0.99,2.17,0,3.14,0,14.9,7.5,-10.88
24-Apr-2019 19:51:00.404,9.74,9.72,1,192.2,0,19.61,172.4,914.5,10.16,136.4,3.77,3.61,0.99,2.17,0,3.14,0,14.9,7.5,-10.88
24-Apr-2019 19:51:00.504,9.74,9.72,1,192.2,0,19.61,172.4,914.5,10.16,136.4,3.77,3.61,0.99,2.17,0,3.14,0,14.9,7.5,-10.88
24-Apr-2019 19:51:00.605,9.74,9.72,1,192.2,0,19.61,172.4,914.5,10.16,136.4,3.77,3.53,0.99,2.17,0,3.14,0,14.9,7.5,-10.88
24-Apr-2019 19:51:00.705,9.74,9.72,1,192.2,0,19.61,172.4,915.25,10.16,136.4,3.77,3.53,0.99,2.17,0,3.14,0,14.9,7.5,-10.88
24-Apr-2019 19:51:00.805,9.74,9.72,1,192.2,0,19.61,172.4,915.25,10.16,136.4,3.77,3.53,0.99,2.17,0,3.14,0,14.9,7.5,-10.88
24-Apr-2019 19:51:00.905,9.74,9.69,1,192.2,0,19.61,172.4,915.25,10.16,136.4,3.77,3.53,0.99,2.15,0,3.14,0,14.9,7.5,-10.88
24-Apr-2019 19:51:01.005,9.74,9.69,1,192.2,0,19.61,172.4,915.25,10.16,136.4,3.77,3.53,0.99,2.15,0,3.14,0,14.9,8,-10.88
24-Apr-2019 19:51:01.105,9.74,9.68,1,192.2,0,19.61,172.4,915.25,10.16,136.4,3.77,3.53,0.99,2.15,0,3.14,0,14.9,8,-10.88
24-Apr-2019 19:51:01.205,9.74,9.68,1,192.2,0,19.61,172.4,915.25,10.16,136.4,3.77,3.53,0.99,2.15,0,3.14,0,14.9,8,-10.88
24-Apr-2019 19:51:01.305,9.74,9.68,1,192.2,0,19.22,172.4,915.25,10.16,136.4,3.77,3.53,0.99,2.15,0,3.14,0,14.9,8,-10.88
24-Apr-2019 19:51:01.405,9.74,9.68,1,192.2,0,19.22,172.4,910,10.16,136.4,3.77,3.48,0.99,2.15,0,3.14,0,14.9,8,-10.88
24-Apr-2019 19:51:01.504,9.74,9.68,1,192.2,0,19.22,172.4,910,10.16,136.4,3.77,3.48,0.99,2.15,0,3.14,0,14.9,8,-10.88
24-Apr-2019 19:51:01.604,9.74,9.7,1,192.2,0,19.22,172.4,910,10.16,136.4,3.77,3.48,0.99,2.16,0,3.14,0,14.9,8,-10.88
24-Apr-2019 19:51:01.705,9.74,9.7,1,192.2,0,19.22,172.4,910,10.16,136.4,3.77,3.48,0.99,2.16,0,3.14,0,14.9,9,-10.88